FW2958 Weather Reports


time (UTC)temp
C
wind
direction
speed
KPH
gust
KPH
rain 1hr
cm
rain 24hr
cm
rain mn
cm
humidity
%
barometer
mb
20260507155755 12 8 0.0 12.9 0.03 1.35 0.84 92 1010.9
20260507155256 12 12 0.0 12.9 0.03 1.37 0.84 93 1011.0
20260507154256 12 5 0.0 4.8 0.03 1.37 0.84 95 1010.8
20260507153756 12 11 8.0 11.3 0.03 1.40 0.84 95 1010.8
20260507153256 12 11 0.0 11.3 0.03 1.42 0.84 95 1010.8
20260507152756 12 0 6.4 12.9 0.03 1.45 0.84 95 1010.8
20260507152256 12 3 4.8 14.5 0.03 1.47 0.84 96 1010.7
20260507151256 12 11 4.8 9.7 0.03 1.50 0.84 97 1010.3
20260507150256 12 32 4.8 9.7 0.00 1.47 0.81 99 1010.2
20260507145756 12 44 0.0 0.0 0.03 1.47 0.81 99 1010.3
20260507145256 13 34 0.0 0.0 0.03 1.47 0.81 99 1010.3
20260507143256 13 55 3.2 8.0 0.03 1.47 0.81 100 1010.0
20260507142756 12 19 4.8 8.0 0.03 1.47 0.81 100 1010.2
20260507141756 13 30 0.0 0.0 0.03 1.47 0.81 100 1010.2
20260507141256 13 66 0.0 0.0 0.03 1.47 0.81 100 1010.1
20260507140756 13 60 0.0 9.7 0.03 1.50 0.81 100 1010.0
20260507140256 13 44 3.2 9.7 0.03 1.57 0.81 100 1010.0
20260507135756 13 65 1.6 9.7 0.00 1.55 0.79 100 1009.8
20260507135256 13 39 0.0 0.0 0.00 1.55 0.79 100 1010.1
20260507134256 12 53 0.0 0.0 0.00 1.55 0.79 100 1010.2
20260507133757 12 65 0.0 0.0 0.00 1.57 0.79 100 1010.2
20260507132256 13 49 1.6 11.3 0.00 1.57 0.79 100 1009.8
20260507131756 13 50 4.8 9.7 0.00 1.57 0.79 100 1009.6
20260507131257 13 46 6.4 11.3 0.00 1.57 0.79 100 1009.8
20260507130756 13 23 1.6 11.3 0.00 1.57 0.79 100 1009.7
20260507130257 13 41 4.8 12.9 0.00 1.57 0.79 100 1009.7
20260507125756 13 55 3.2 9.7 0.03 1.57 0.79 100 1010.0
20260507125257 13 61 0.0 0.0 0.03 1.57 0.79 100 1009.6
20260507124757 13 69 0.0 0.0 0.05 1.57 0.79 100 1009.6
20260507124256 13 74 1.6 8.0 0.08 1.57 0.79 100 1009.6
20260507123756 13 74 8.0 9.7 0.08 1.57 0.79 100 1009.6
20260507123256 13 86 3.2 8.0 0.08 1.57 0.79 100 1009.9
20260507122756 13 74 4.8 8.0 0.10 1.57 0.79 100 1009.7
20260507122256 13 76 6.4 9.7 0.13 1.57 0.79 100 1009.6
20260507121757 13 80 6.4 9.7 0.13 1.57 0.79 100 1009.2
20260507121256 13 77 8.0 11.3 0.15 1.57 0.79 100 1009.0
20260507120256 13 80 0.0 0.0 0.25 1.57 0.79 100 1009.3
20260507115756 13 82 0.0 0.0 0.23 1.55 0.76 100 1009.5
20260507114756 13 78 4.8 4.8 0.20 1.52 0.74 100 1009.5
20260507114256 13 67 4.8 9.7 0.18 1.50 0.71 100 1009.9
20260507113256 13 66 4.8 9.7 0.18 1.50 0.71 100 1009.8
20260507112256 13 68 9.7 12.9 0.13 1.45 0.66 100 1009.4
20260507111756 13 9 0.0 0.0 0.13 1.45 0.66 100 1009.5
20260507111256 14 12 0.0 0.0 0.13 1.42 0.64 100 1009.5
20260507110756 14 238 0.0 0.0 0.10 1.40 0.61 100 1009.4
20260507110256 14 238 0.0 9.7 0.05 1.32 0.53 100 1009.4
20260507105757 14 273 0.0 0.0 0.05 1.32 0.53 100 1009.4
20260507105257 14 273 3.2 8.0 0.08 1.32 0.53 100 1009.2
20260507104757 14 273 1.6 4.8 0.08 1.32 0.53 100 1008.9
20260507103756 14 255 0.0 0.0 0.15 1.32 0.53 100 1008.7
20260507102756 14 276 0.0 0.0 0.15 1.32 0.53 100 1008.4
20260507102256 14 279 0.0 0.0 0.15 1.32 0.53 100 1008.3
20260507101256 15 279 0.0 0.0 0.18 1.30 0.51 100 1008.3
20260507100256 15 279 0.0 0.0 0.23 1.27 0.48 100 1008.3
20260507095756 15 279 0.0 0.0 0.25 1.27 0.48 100 1008.4
20260507095257 15 279 0.0 0.0 0.23 1.24 0.46 100 1008.6
20260507094757 15 276 0.0 0.0 0.23 1.24 0.46 100 1008.4
20260507094256 15 250 0.0 0.0 0.18 1.19 0.41 100 1008.3
20260507093756 15 252 0.0 0.0 0.15 1.17 0.38 100 1008.2
20260507093256 15 229 0.0 0.0 0.18 1.17 0.38 100 1008.1
20260507092757 15 229 0.0 0.0 0.18 1.17 0.38 100 1007.9
20260507091756 15 229 0.0 0.0 0.18 1.17 0.38 100 1007.7
20260507090757 16 0 0.0 0.0 0.10 1.09 0.30 100 1008.0
20260507090257 16 0 0.0 0.0 0.05 1.04 0.25 100 1007.7
20260507085256 16 291 0.0 0.0 0.03 1.02 0.23 100 1008.0
20260507084756 16 291 0.0 0.0 0.03 1.02 0.23 100 1007.9
20260507084256 16 248 0.0 0.0 0.03 1.02 0.23 100 1008.0
20260507083757 16 207 0.0 0.0 0.03 1.02 0.23 100 1007.7
20260507083257 16 207 0.0 0.0 0.00 0.99 0.20 100 1007.7
20260507082756 16 207 0.0 0.0 0.08 0.99 0.20 100 1007.8
20260507082257 16 207 0.0 0.0 0.13 0.99 0.20 100 1007.7
20260507081757 16 207 0.0 0.0 0.13 0.99 0.20 100 1007.6
20260507081256 16 207 0.0 0.0 0.13 0.99 0.20 100 1007.6
20260507080756 16 207 0.0 0.0 0.13 0.99 0.20 100 1007.6
20260507075757 16 207 0.0 0.0 0.13 0.99 0.20 100 1007.7
20260507075257 16 207 0.0 0.0 0.13 0.99 0.20 100 1007.7
20260507074757 16 207 0.0 0.0 0.13 0.99 0.20 100 1008.2
20260507074256 16 207 0.0 0.0 0.13 0.99 0.20 100 1008.4
20260507073756 16 207 0.0 0.0 0.13 0.99 0.20 100 1008.2
20260507073256 16 207 0.0 0.0 0.15 0.99 0.20 100 1008.1
20260507072757 16 207 0.0 0.0 0.08 0.91 0.13 100 1008.0
20260507072257 16 207 0.0 0.0 0.03 0.86 0.08 100 1008.1
20260507071757 16 207 0.0 0.0 0.03 0.86 0.08 100 1008.2
20260507071256 16 207 0.0 0.0 0.03 0.86 0.08 100 1008.2
20260507070756 16 207 0.0 0.0 0.03 0.86 0.08 100 1008.3
20260507070257 16 207 0.0 0.0 0.03 0.86 0.08 100 1008.1
20260507065757 16 207 0.0 0.0 0.05 0.86 0.08 100 1007.9
20260507065256 16 207 0.0 0.0 0.05 0.86 0.08 100 1008.1
20260507064756 16 207 0.0 0.0 0.05 0.86 0.08 100 1008.3
20260507063757 16 207 0.0 0.0 0.08 0.86 0.08 100 1008.1
20260507063257 16 207 0.0 0.0 0.05 0.84 0.05 100 1008.1
20260507062756 16 207 0.0 0.0 0.05 0.84 0.05 100 1008.1
20260507062257 16 207 0.0 0.0 0.05 0.84 0.05 100 1008.4
20260507061756 16 207 0.0 0.0 0.05 0.84 0.05 100 1008.1
20260507061257 16 207 0.0 0.0 0.05 0.84 0.05 100 1008.6
20260507060757 16 207 0.0 0.0 0.05 0.84 0.05 100 1008.6
20260507060256 16 207 0.0 0.0 0.05 0.84 0.05 100 1008.5
20260507055756 16 207 0.0 0.0 0.03 0.81 0.03 100 1008.6
20260507055256 16 207 0.0 0.0 0.03 0.81 0.03 100 1008.3
20260507054757 16 207 0.0 0.0 0.03 0.81 0.03 100 1008.1
20260507054257 16 207 0.0 0.0 0.00 0.79 0.00 100 1008.6
20260507053757 16 207 0.0 0.0 0.00 0.79 0.00 100 1008.6
20260507052757 16 207 0.0 0.0 0.00 0.79 0.00 100 1008.8
20260507052257 16 207 0.0 0.0 0.00 0.79 0.00 100 1008.7
20260507051757 16 207 0.0 0.0 0.00 0.79 0.00 100 1008.7
20260507051258 16 207 0.0 0.0 0.00 0.79 0.00 100 1008.7
20260507050756 16 207 0.0 0.0 0.00 0.79 0.00 100 1008.6
20260507050256 16 207 0.0 0.0 0.00 0.79 0.00 100 1008.7
20260507045757 16 207 0.0 0.0 0.00 0.79 0.00 100 1009.0
20260507045257 16 207 0.0 0.0 0.00 0.79 0.00 100 1009.0
20260507044757 16 207 0.0 0.0 0.00 0.79 0.00 100 1009.1
20260507044257 16 207 0.0 0.0 0.00 0.79 0.00 100 1009.2
20260507043756 16 207 0.0 0.0 0.03 0.79 0.00 100 1009.2
20260507043256 16 207 0.0 0.0 0.03 0.79 0.00 100 1009.1
20260507042756 16 207 0.0 0.0 0.03 0.79 0.00 100 1009.1
20260507041757 16 207 0.0 0.0 0.03 0.79 0.00 100 1009.6
20260507041257 16 207 0.0 0.0 0.03 0.79 0.00 100 1009.7
20260507040807 16 207 0.0 0.0 0.03 0.79 0.00 100 1009.3
20260507040257 16 207 0.0 0.0 0.03 0.79 0.00 100 1009.7
20260507035757 16 207 0.0 0.0 0.03 0.79 0.79 100 1009.8
20260507035257 16 207 0.0 0.0 0.03 0.79 0.79 100 1009.9
20260507034756 16 207 0.0 0.0 0.03 0.79 0.79 100 1010.1
20260507034256 16 207 0.0 0.0 0.03 0.79 0.79 100 1010.0
20260507033257 16 244 0.0 0.0 0.00 0.76 0.76 100 1010.3
20260507032757 16 244 0.0 0.0 0.00 0.76 0.76 100 1010.0
20260507031757 16 244 0.0 0.0 0.00 0.76 0.76 100 1010.2
20260507031257 16 244 0.0 0.0 0.00 0.76 0.76 100 1010.3
20260507030757 16 244 0.0 0.0 0.00 0.76 0.76 100 1010.2
20260507030257 16 244 0.0 0.0 0.00 0.76 0.76 100 1010.1
20260507025757 16 244 0.0 0.0 0.00 0.76 0.76 100 1009.9
20260507024757 16 97 0.0 0.0 0.00 0.76 0.76 99 1009.9
20260507024257 16 97 0.0 0.0 0.05 0.76 0.76 98 1009.6
20260507023758 16 97 0.0 0.0 0.08 0.76 0.76 98 1009.4
20260507023257 16 97 0.0 0.0 0.10 0.76 0.76 97 1009.2
20260507022758 16 97 0.0 0.0 0.10 0.76 0.76 97 1009.5
20260507022257 16 97 0.0 0.0 0.13 0.76 0.76 96 1009.6
20260507021757 16 97 0.0 0.0 0.18 0.76 0.76 96 1009.2
20260507021257 16 97 0.0 0.0 0.20 0.76 0.76 96 1009.0
20260507020757 16 97 0.0 0.0 0.23 0.76 0.76 96 1009.4
20260507020257 17 97 0.0 0.0 0.25 0.76 0.76 95 1009.5
20260507015758 17 97 0.0 0.0 0.28 0.76 0.76 95 1009.5
20260507015257 17 94 0.0 0.0 0.28 0.76 0.76 95 1009.5
20260507014757 17 94 0.0 0.0 0.30 0.76 0.76 95 1009.7
20260507014257 17 94 0.0 0.0 0.28 0.71 0.71 94 1009.1
20260507013757 17 233 0.0 11.3 0.28 0.69 0.69 94 1010.6
20260507013257 17 277 8.0 19.3 0.25 0.66 0.66 94 1011.2
20260507012257 17 243 0.0 9.7 0.23 0.64 0.64 94 1011.0
20260507011257 17 265 4.8 12.9 0.18 0.56 0.56 92 1010.9
20260507010757 17 271 4.8 11.3 0.15 0.53 0.53 92 1010.6
20260507010257 17 267 0.0 0.0 0.13 0.51 0.51 91 1010.2
20260507005757 17 300 0.0 4.8 0.10 0.48 0.48 90 1010.1
20260507005257 17 279 3.2 8.0 0.10 0.48 0.48 90 1009.6
20260507004756 17 279 3.2 8.0 0.08 0.46 0.46 89 1009.6
20260507004257 17 277 0.0 0.0 0.05 0.43 0.43 88 1009.4
20260507003757 17 258 4.8 8.0 0.03 0.41 0.41 87 1009.7
20260507003257 17 252 4.8 9.7 0.03 0.41 0.41 87 1009.7
20260507002757 17 268 8.0 12.9 0.03 0.41 0.41 87 1009.8
20260507002257 17 271 8.0 12.9 0.03 0.41 0.41 87 1009.7
20260507001757 17 252 0.0 0.0 0.03 0.38 0.38 87 1009.6
20260507001257 17 262 0.0 0.0 0.03 0.38 0.38 87 1009.3
20260507000258 17 265 1.6 9.7 0.03 0.38 0.38 87 1009.0
20260506235757 17 252 1.6 8.0 0.05 0.38 0.38 88 1009.0
20260506235257 17 264 0.0 0.0 0.08 0.38 0.38 87 1009.0
20260506234757 17 226 0.0 0.0 0.08 0.38 0.38 87 1009.1
20260506234257 17 283 1.6 9.7 0.08 0.38 0.38 86 1009.1
20260506233757 18 245 0.0 4.8 0.08 0.38 0.38 85 1009.3
20260506232757 18 252 1.6 11.3 0.08 0.38 0.38 84 1009.1
20260506232257 18 248 3.2 11.3 0.08 0.38 0.38 84 1009.2
20260506231758 18 261 4.8 11.3 0.05 0.36 0.36 83 1009.1
20260506231257 18 259 1.6 9.7 0.05 0.36 0.36 82 1009.1
20260506230757 18 256 6.4 14.5 0.05 0.36 0.36 81 1009.1
20260506225257 19 272 0.0 0.0 0.00 0.30 0.30 79 1008.8
20260506224757 20 267 0.0 0.0 0.00 0.30 0.30 78 1008.9
20260506223757 20 255 1.6 16.1 0.00 0.30 0.30 78 1008.4
20260506223257 20 257 0.0 16.1 0.00 0.30 0.30 81 1008.4
20260506222757 20 251 0.0 0.0 0.00 0.30 0.30 81 1008.6
20260506222257 20 261 1.6 12.9 0.00 0.30 0.30 81 1008.8
20260506221758 20 261 6.4 11.3 0.00 0.30 0.30 81 1008.7
20260506221258 20 261 6.4 14.5 0.00 0.30 0.30 81 1008.4
20260506220257 20 275 0.0 1.6 0.00 0.30 0.30 82 1008.4
20260506215257 20 255 1.6 11.3 0.00 0.30 0.30 83 1007.9
20260506213757 20 274 0.0 0.0 0.00 0.30 0.30 84 1008.0
20260506212257 21 276 0.0 11.3 0.00 0.30 0.30 81 1008.2
20260506211757 21 281 0.0 0.0 0.00 0.30 0.30 79 1008.3
20260506211257 21 286 0.0 11.3 0.00 0.30 0.30 78 1008.4
20260506210758 21 249 1.6 11.3 0.00 0.30 0.30 77 1008.7
20260506210258 21 240 8.0 12.9 0.00 0.30 0.30 77 1008.7
20260506205758 21 259 4.8 11.3 0.00 0.30 0.30 77 1008.6
20260506204757 21 263 12.9 19.3 0.00 0.30 0.30 75 1008.8
20260506203757 21 259 11.3 22.5 0.00 0.30 0.30 74 1008.9
20260506203257 21 261 14.5 25.7 0.00 0.30 0.30 73 1009.1
20260506202758 21 254 14.5 22.5 0.00 0.30 0.30 73 1008.8
20260506202258 22 261 11.3 20.9 0.00 0.30 0.30 73 1008.8
20260506201758 22 250 9.7 19.3 0.00 0.30 0.30 73 1008.8
20260506201258 22 277 9.7 24.1 0.00 0.30 0.30 72 1008.8
20260506200758 22 264 11.3 20.9 0.00 0.30 0.30 72 1008.8
20260506195757 22 268 9.7 19.3 0.00 0.30 0.30 72 1008.5
20260506195257 22 245 8.0 16.1 0.00 0.30 0.30 71 1008.5
20260506194758 22 245 8.0 19.3 0.00 0.30 0.30 71 1008.5
20260506194258 22 242 11.3 24.1 0.00 0.30 0.30 70 1008.8
20260506193257 22 273 19.3 32.2 0.00 0.30 0.30 69 1009.1
20260506192257 22 257 14.5 29.0 0.00 0.30 0.30 69 1009.0
20260506191757 22 265 22.5 32.2 0.00 0.30 0.30 67 1009.1
20260506191257 22 265 20.9 38.6 0.00 0.30 0.30 66 1009.3
20260506190757 22 275 25.7 37.0 0.00 0.30 0.30 64 1009.3
20260506190257 23 280 19.3 38.6 0.00 0.30 0.30 66 1009.1
20260506185258 23 265 16.1 29.0 0.00 0.30 0.30 64 1008.9
20260506184758 23 274 22.5 32.2 0.00 0.30 0.30 62 1008.8
20260506184257 23 277 11.3 27.4 0.00 0.30 0.30 64 1008.7
20260506183757 23 247 17.7 27.4 0.00 0.30 0.30 64 1008.6
20260506183257 23 289 14.5 25.7 0.00 0.30 0.30 63 1008.4
20260506182758 23 282 14.5 24.1 0.00 0.30 0.30 64 1008.3
20260506182258 23 287 11.3 22.5 0.00 0.30 0.30 66 1008.3
20260506181758 23 246 11.3 24.1 0.00 0.30 0.30 64 1008.3
20260506181258 23 271 14.5 25.7 0.00 0.30 0.30 63 1008.3
20260506180257 23 241 12.9 24.1 0.00 0.30 0.30 64 1008.4
20260506175757 23 266 8.0 16.1 0.00 0.30 0.30 67 1008.3
20260506175257 22 246 14.5 24.1 0.00 0.30 0.30 67 1008.3
20260506174757 22 263 9.7 20.9 0.00 0.30 0.30 69 1008.2
20260506174257 22 262 8.0 16.1 0.00 0.30 0.30 72 1008.3
20260506173757 22 271 9.7 16.1 0.00 0.30 0.30 72 1008.2
20260506173257 21 252 9.7 19.3 0.00 0.30 0.30 73 1008.2
20260506172757 21 265 4.8 19.3 0.00 0.30 0.30 76 1008.3
20260506172257 21 252 4.8 11.3 0.00 0.30 0.30 75 1008.3
20260506171757 21 229 8.0 12.9 0.00 0.30 0.30 77 1008.2
20260506171257 20 246 0.0 16.1 0.03 0.30 0.30 80 1008.3
20260506170758 20 260 6.4 16.1 0.03 0.30 0.30 79 1008.5
20260506165757 19 253 1.6 14.5 0.03 0.30 0.30 84 1008.7
20260506164757 18 264 4.8 16.1 0.05 0.30 0.30 87 1009.0
20260506164257 18 266 4.8 14.5 0.05 0.30 0.30 88 1009.3
20260506163757 18 259 0.0 12.9 0.08 0.30 0.30 89 1009.2
20260506163258 18 267 8.0 14.5 0.10 0.30 0.30 91 1009.4
20260506162758 18 270 4.8 14.5 0.13 0.30 0.30 91 1009.7
20260506161758 18 208 0.0 12.9 0.15 0.30 0.30 92 1010.0
20260506161257 18 241 0.0 0.0 0.15 0.28 0.28 92 1010.5
20260506160758 18 253 0.0 16.1 0.15 0.28 0.28 91 1010.6
20260506160258 18 250 1.6 16.1 0.15 0.28 0.28 91 1010.9